Location: Puketoi
(40.5833°S, 176.0167°E)
Time: 15:36:09
(UTC+00:00)

Cosmos 1697 Rocket - Pass Details

Date: 08 February 2023
Orbit: 834 x 842 km, 71.0° (Epoch: 23 March)

Event Time Altitude Azimuth Distance (km) Brightness Sun altitude
Exits shadow 14:53:03 41° 30° (NNE) 1,201 3.3 -25.3°
Maximum altitude 14:54:28 51° 73° (ENE) 1,054 3.2 -25.2°
Drops below altitude 10° 14:59:57 10° 147° (SSE) 2,479 6.2 -24.5°
Sets 15:02:28 0° 151° (SSE) 3,422 7.2 -24.2°
